Mount Holly, NJ

12:14 PM EDT on October 23, 2019 (GMT -0400)
South Jersey Regional

Weather History for KVAY - August, 2019

Change the Weather History Date:

Sunday, August 11, 2019

  Actual Average (WUND) Record (WUND)
Temperature  
Mean Temperature 70 °F -  
Max Temperature 82 °F - - (-1)
Min Temperature 57 °F - - (-1)
Cooling Degree Days 4    
Growing Degree Days 20 (Base 50)    
Moisture  
Dew Point 56 °F    
Average Humidity 66    
Maximum Humidity 96    
Minimum Humidity 34    
Precipitation  
Precipitation 0.00 in - - ()
Sea Level Pressure  
Sea Level Pressure 30.01 in    
Wind  
Wind Speed 1 mph (WNW)    
Max Wind Speed 8 mph    
Max Gust Speed -    
Visibility 10 miles    
Events      
Averages and records for this station are not official NWS values.
T = Trace of Precipitation, MM = Missing Value Source: NWS Daily Summary

Daily Weather History Graph

Daily Weather History Graph

Search for Another Location

Airport or City:

Astronomy

Aug. 11, 2019 Rise Set
Actual Time 6:07 AM EDT 8:01 PM EDT
Civil Twilight 5:37 AM EDT 8:30 PM EDT
Nautical Twilight 5:01 AM EDT 9:06 PM EDT
Astronomical Twilight 4:23 AM EDT 9:44 PM EDT
Moon 5:38 PM EDT (8/11) 2:25 AM EDT (8/11)
Length of Visible Light 14h 53m
Length of Day
13h 54m
Waxing Gibbous, 87% of the Moon is Illuminated
Aug 11
Waxing Gibbous
Aug 15
Full
Aug 23
Last Quarter
Aug 30
New
Sep 5
First Quarter

Hourly Weather History & Observations

Time (EDT) Temp. Heat Index Dew Point Humidity Pressure Visibility Wind Dir Wind Speed Gust Speed Precip Events Conditions
12:54 AM 61.0 °F - 57.0 °F 87% 29.96 in 10.0 mi Calm Calm - N/A   Clear
1:54 AM 60.1 °F - 57.9 °F 93% 29.96 in 10.0 mi Calm Calm - N/A   Clear
2:54 AM 59.0 °F - 57.0 °F 93% 29.96 in 10.0 mi Calm Calm - N/A   Clear
3:54 AM 57.9 °F - 55.9 °F 93% 29.97 in 10.0 mi Calm Calm - N/A   Clear
4:54 AM 57.9 °F - 55.9 °F 93% 29.98 in 10.0 mi Calm Calm - N/A   Clear
5:54 AM 57.0 °F - 55.9 °F 96% 30.00 in 10.0 mi Calm Calm - N/A   Clear
6:54 AM 59.0 °F - 57.9 °F 96% 30.02 in 10.0 mi Calm Calm - N/A   Clear
7:54 AM 66.0 °F - 57.9 °F 75% 30.04 in 10.0 mi Calm Calm - N/A   Clear
8:54 AM 71.1 °F - 57.9 °F 63% 30.04 in 10.0 mi North 4.6 mph - N/A   Clear
9:54 AM 73.9 °F - 57.0 °F 55% 30.05 in 10.0 mi Calm Calm - N/A   Clear
10:54 AM 75.9 °F - 55.0 °F 48% 30.05 in 10.0 mi Calm Calm - N/A   Clear
11:54 AM 78.1 °F - 55.9 °F 46% 30.05 in 10.0 mi Calm Calm - N/A   Clear
12:54 PM 78.1 °F - 55.0 °F 45% 30.04 in 10.0 mi North 3.5 mph - N/A   Scattered Clouds
1:54 PM 80.1 °F 79.9 °F 53.1 °F 39% 30.03 in 10.0 mi West 6.9 mph - N/A   Mostly Cloudy
2:54 PM 80.1 °F - 51.1 °F 36% 30.01 in 10.0 mi West 8.1 mph - N/A   Scattered Clouds
3:54 PM 82.0 °F - 51.1 °F 34% 30.01 in 10.0 mi West 8.1 mph - N/A   Partly Cloudy
4:54 PM 82.0 °F - 52.0 °F 35% 29.99 in 10.0 mi WNW 5.8 mph - N/A   Clear
5:54 PM 82.0 °F 81.3 °F 54.0 °F 38% 29.99 in 10.0 mi Variable 3.5 mph - N/A   Clear
6:54 PM 80.1 °F - 50.0 °F 35% 29.99 in 10.0 mi WNW 4.6 mph - N/A   Clear
7:54 PM 72.0 °F - 57.9 °F 61% 29.99 in 10.0 mi Calm Calm - N/A   Clear
8:54 PM 66.9 °F - 57.0 °F 70% 30.01 in 10.0 mi Calm Calm - N/A   Clear
9:54 PM 64.0 °F - 57.0 °F 78% 30.02 in 10.0 mi Calm Calm - N/A   Clear
10:54 PM 63.0 °F - 57.0 °F 81% 30.01 in 10.0 mi Calm Calm - N/A   Clear
11:54 PM 61.0 °F - 57.0 °F 87% 30.02 in 10.0 mi Calm Calm - N/A   Unknown